| time (UTC) | temp F | wind direction | speed MPH | gust MPH | rain 1hr in | rain 24hr in | rain mn in | humidity % | barometer mb |
| 20260503201503 | 58 | 2 | 9.0 | 16.0 | 0.00 | 0.00 | 0.00 | 30 | 1012.9 |
| 20260503200503 | 57 | 2 | 8.0 | 15.0 | 0.00 | 0.00 | 0.00 | 31 | 1012.9 |
| 20260503200004 | 58 | 2 | 8.0 | 15.0 | 0.00 | 0.00 | 0.00 | 31 | 1012.9 |
| 20260503195504 | 58 | 1 | 10.0 | 15.0 | 0.00 | 0.00 | 0.00 | 31 | 1012.9 |
| 20260503195003 | 58 | 1 | 10.0 | 11.0 | 0.00 | 0.00 | 0.00 | 31 | 1013.0 |
| 20260503194004 | 59 | 1 | 8.0 | 14.0 | 0.00 | 0.00 | 0.00 | 32 | 1013.1 |
| 20260503193503 | 58 | 2 | 10.0 | 14.0 | 0.00 | 0.00 | 0.00 | 31 | 1013.0 |
| 20260503193004 | 57 | 1 | 11.0 | 12.0 | 0.00 | 0.00 | 0.00 | 31 | 1013.2 |
| 20260503192504 | 57 | 1 | 11.0 | 14.0 | 0.00 | 0.00 | 0.00 | 32 | 1013.2 |
| 20260503192003 | 58 | 2 | 10.0 | 14.0 | 0.00 | 0.00 | 0.00 | 30 | 1013.3 |
| 20260503191004 | 58 | 1 | 10.0 | 12.0 | 0.00 | 0.00 | 0.00 | 32 | 1013.2 |
| 20260503190004 | 56 | 2 | 8.0 | 14.0 | 0.00 | 0.00 | 0.00 | 32 | 1013.3 |
| 20260503185503 | 57 | 1 | 8.0 | 14.0 | 0.00 | 0.00 | 0.00 | 33 | 1013.5 |
| 20260503185004 | 56 | 2 | 8.0 | 10.0 | 0.00 | 0.00 | 0.00 | 32 | 1013.5 |
| 20260503184504 | 56 | 1 | 9.0 | 10.0 | 0.00 | 0.00 | 0.00 | 33 | 1013.5 |
| 20260503184003 | 56 | 1 | 8.0 | 10.0 | 0.00 | 0.00 | 0.00 | 33 | 1013.7 |
| 20260503183503 | 56 | 1 | 9.0 | 21.0 | 0.00 | 0.00 | 0.00 | 34 | 1013.6 |
| 20260503183004 | 56 | 1 | 9.0 | 21.0 | 0.00 | 0.00 | 0.00 | 32 | 1013.6 |
| 20260503182504 | 56 | 1 | 8.0 | 21.0 | 0.00 | 0.00 | 0.00 | 33 | 1013.6 |
| 20260503182004 | 56 | 2 | 9.0 | 17.0 | 0.00 | 0.00 | 0.00 | 32 | 1013.8 |
| 20260503181505 | 56 | 1 | 9.0 | 12.0 | 0.00 | 0.00 | 0.00 | 34 | 1013.7 |
| 20260503180503 | 55 | 1 | 13.0 | 20.0 | 0.00 | 0.00 | 0.00 | 34 | 1013.5 |
| 20260503180004 | 55 | 1 | 11.0 | 20.0 | 0.00 | 0.00 | 0.00 | 34 | 1013.6 |
| 20260503175004 | 55 | 1 | 6.0 | 10.0 | 0.00 | 0.00 | 0.00 | 35 | 1013.8 |
| 20260503174504 | 54 | 1 | 6.0 | 15.0 | 0.00 | 0.00 | 0.00 | 37 | 1013.9 |
| 20260503174004 | 54 | 2 | 8.0 | 15.0 | 0.00 | 0.00 | 0.00 | 34 | 1013.9 |
| 20260503172003 | 54 | 1 | 8.0 | 9.0 | 0.00 | 0.00 | 0.00 | 38 | 1014.0 |
| 20260503171503 | 52 | 2 | 8.0 | 15.0 | 0.00 | 0.00 | 0.00 | 38 | 1014.0 |
| 20260503171003 | 53 | 2 | 8.0 | 15.0 | 0.00 | 0.00 | 0.00 | 37 | 1013.9 |
| 20260503170503 | 54 | 2 | 8.0 | 15.0 | 0.00 | 0.00 | 0.00 | 39 | 1014.0 |
| 20260503151003 | 49 | 1 | 7.0 | 11.0 | 0.00 | 0.00 | 0.00 | 45 | 1014.7 |
| 20260503150503 | 49 | 2 | 7.0 | 10.0 | 0.00 | 0.00 | 0.00 | 48 | 1014.7 |
| 20260503131003 | 46 | 2 | 7.0 | 11.0 | 0.00 | 0.00 | 0.00 | 53 | 1014.5 |
| 20260503090504 | 43 | 1 | 3.0 | 5.0 | 0.00 | 0.00 | 0.00 | 63 | 1011.9 |
| 20260503081504 | 42 | 0 | 0.0 | 0.0 | 0.00 | 0.00 | 0.00 | 66 | 1011.7 |
| 20260503081003 | 43 | 1 | 0.0 | 1.0 | 0.00 | 0.00 | 0.00 | 65 | 1011.6 |
| 20260503080504 | 43 | 1 | 1.0 | 1.0 | 0.00 | 0.00 | 0.00 | 65 | 1011.6 |
| 20260503072004 | 44 | 1 | 1.0 | 2.0 | 0.00 | 0.00 | 0.00 | 62 | 1011.4 |
| 20260503071504 | 44 | 1 | 2.0 | 3.0 | 0.00 | 0.00 | 0.00 | 62 | 1011.5 |
| 20260503070503 | 45 | 1 | 1.0 | 5.0 | 0.00 | 0.00 | 0.00 | 61 | 1011.4 |
| 20260503055003 | 46 | 1 | 3.0 | 4.0 | 0.00 | 0.00 | 0.00 | 59 | 1011.8 |
| 20260503054503 | 46 | 2 | 3.0 | 4.0 | 0.00 | 0.00 | 0.00 | 59 | 1011.8 |
| 20260503054005 | 46 | 1 | 2.0 | 4.0 | 0.00 | 0.00 | 0.00 | 59 | 1011.8 |
| 20260503053503 | 46 | 2 | 2.0 | 4.0 | 0.00 | 0.00 | 0.00 | 59 | 1011.9 |
| 20260503053003 | 46 | 1 | 2.0 | 4.0 | 0.00 | 0.00 | 0.00 | 58 | 1012.0 |
| 20260503052503 | 47 | 2 | 2.0 | 4.0 | 0.00 | 0.00 | 0.00 | 58 | 1012.1 |
| 20260503052004 | 47 | 1 | 2.0 | 3.0 | 0.00 | 0.00 | 0.00 | 57 | 1012.2 |
| 20260503051003 | 47 | 1 | 4.0 | 5.0 | 0.00 | 0.00 | 0.00 | 56 | 1012.2 |
| 20260503050503 | 47 | 2 | 4.0 | 5.0 | 0.00 | 0.00 | 0.00 | 56 | 1012.2 |
| 20260503050004 | 48 | 2 | 3.0 | 5.0 | 0.00 | 0.00 | 0.00 | 56 | 1012.2 |
| 20260503045503 | 48 | 1 | 2.0 | 5.0 | 0.00 | 0.00 | 0.00 | 55 | 1012.3 |
| 20260503045003 | 48 | 1 | 3.0 | 5.0 | 0.00 | 0.00 | 0.00 | 55 | 1012.3 |
| 20260503044004 | 48 | 1 | 2.0 | 3.0 | 0.00 | 0.00 | 0.00 | 54 | 1012.4 |
| 20260503043503 | 48 | 1 | 3.0 | 6.0 | 0.00 | 0.00 | 0.00 | 54 | 1012.5 |
| 20260503042504 | 48 | 2 | 3.0 | 7.0 | 0.00 | 0.00 | 0.00 | 53 | 1012.5 |
| 20260503042003 | 48 | 1 | 3.0 | 7.0 | 0.00 | 0.00 | 0.00 | 53 | 1012.5 |
| 20260503041503 | 48 | 1 | 2.0 | 7.0 | 0.00 | 0.00 | 0.00 | 53 | 1012.5 |
| 20260503040504 | 49 | 1 | 3.0 | 3.0 | 0.00 | 0.00 | 0.00 | 51 | 1012.6 |
| 20260503040004 | 49 | 1 | 3.0 | 4.0 | 0.00 | 0.00 | 0.00 | 51 | 1012.6 |
| 20260503035504 | 49 | 2 | 3.0 | 4.0 | 0.00 | 0.00 | 0.00 | 51 | 1012.6 |
| 20260503035004 | 49 | 1 | 3.0 | 6.0 | 0.00 | 0.00 | 0.00 | 50 | 1012.6 |
| 20260503034503 | 49 | 2 | 3.0 | 6.0 | 0.00 | 0.00 | 0.00 | 50 | 1012.6 |
| 20260503034003 | 49 | 1 | 2.0 | 4.0 | 0.00 | 0.00 | 0.00 | 49 | 1012.5 |
| 20260503031003 | 50 | 1 | 3.0 | 7.0 | 0.00 | 0.00 | 0.00 | 48 | 1012.5 |
| 20260503030504 | 50 | 1 | 3.0 | 7.0 | 0.00 | 0.00 | 0.00 | 47 | 1012.6 |
| 20260503030004 | 50 | 1 | 3.0 | 5.0 | 0.00 | 0.00 | 0.00 | 47 | 1012.5 |
| 20260503025003 | 51 | 1 | 3.0 | 6.0 | 0.00 | 0.00 | 0.00 | 47 | 1012.5 |
| 20260503024503 | 51 | 1 | 4.0 | 6.0 | 0.00 | 0.00 | 0.00 | 46 | 1012.5 |
| 20260503023505 | 51 | 1 | 4.0 | 8.0 | 0.00 | 0.00 | 0.00 | 45 | 1012.7 |
| 20260503023004 | 51 | 1 | 4.0 | 8.0 | 0.00 | 0.00 | 0.00 | 45 | 1012.6 |
| 20260503022503 | 51 | 1 | 4.0 | 8.0 | 0.00 | 0.00 | 0.00 | 45 | 1012.6 |
| 20260503022003 | 52 | 1 | 4.0 | 6.0 | 0.00 | 0.00 | 0.00 | 44 | 1012.5 |
| 20260503021504 | 52 | 2 | 4.0 | 5.0 | 0.00 | 0.00 | 0.00 | 44 | 1012.6 |
| 20260503021003 | 52 | 1 | 4.0 | 6.0 | 0.00 | 0.00 | 0.00 | 43 | 1012.6 |
| 20260503020503 | 52 | 1 | 4.0 | 7.0 | 0.00 | 0.00 | 0.00 | 43 | 1012.6 |
| 20260503015504 | 52 | 2 | 4.0 | 7.0 | 0.00 | 0.00 | 0.00 | 43 | 1012.6 |
| 20260503015003 | 53 | 2 | 5.0 | 9.0 | 0.00 | 0.00 | 0.00 | 43 | 1012.6 |
| 20260503014504 | 53 | 2 | 5.0 | 9.0 | 0.00 | 0.00 | 0.00 | 43 | 1012.6 |
| 20260503014003 | 53 | 2 | 5.0 | 7.0 | 0.00 | 0.00 | 0.00 | 43 | 1012.5 |
| 20260503013504 | 53 | 1 | 5.0 | 6.0 | 0.00 | 0.00 | 0.00 | 43 | 1012.6 |
| 20260503013003 | 53 | 1 | 4.0 | 6.0 | 0.00 | 0.00 | 0.00 | 42 | 1012.5 |
| 20260503012503 | 53 | 1 | 4.0 | 6.0 | 0.00 | 0.00 | 0.00 | 43 | 1012.5 |
| 20260503012004 | 53 | 1 | 4.0 | 6.0 | 0.00 | 0.00 | 0.00 | 43 | 1012.4 |
| 20260503011504 | 53 | 1 | 3.0 | 5.0 | 0.00 | 0.00 | 0.00 | 43 | 1012.4 |
| 20260503011004 | 53 | 2 | 3.0 | 5.0 | 0.00 | 0.00 | 0.00 | 43 | 1012.4 |
| 20260503010503 | 53 | 1 | 3.0 | 4.0 | 0.00 | 0.00 | 0.00 | 43 | 1012.4 |
| 20260503010004 | 53 | 1 | 3.0 | 5.0 | 0.00 | 0.00 | 0.00 | 42 | 1012.4 |
| 20260503005503 | 54 | 2 | 4.0 | 7.0 | 0.00 | 0.00 | 0.00 | 41 | 1012.3 |
| 20260503004504 | 54 | 1 | 3.0 | 4.0 | 0.00 | 0.00 | 0.00 | 40 | 1012.3 |
| 20260503004004 | 54 | 2 | 4.0 | 5.0 | 0.00 | 0.00 | 0.00 | 40 | 1012.1 |
| 20260503003503 | 54 | 1 | 4.0 | 5.0 | 0.00 | 0.00 | 0.00 | 40 | 1012.1 |
| 20260503003003 | 54 | 1 | 4.0 | 7.0 | 0.00 | 0.00 | 0.00 | 40 | 1012.0 |
| 20260503002504 | 54 | 1 | 3.0 | 7.0 | 0.00 | 0.00 | 0.00 | 40 | 1012.0 |
| 20260503001003 | 54 | 1 | 3.0 | 7.0 | 0.00 | 0.00 | 0.00 | 38 | 1012.0 |
| 20260503000504 | 55 | 1 | 4.0 | 5.0 | 0.00 | 0.00 | 0.00 | 38 | 1011.9 |
| 20260503000004 | 55 | 1 | 3.0 | 5.0 | 0.00 | 0.00 | 0.00 | 38 | 1011.8 |
| 20260502235503 | 55 | 1 | 3.0 | 3.0 | 0.00 | 0.00 | 0.00 | 38 | 1011.8 |
| 20260502235003 | 55 | 1 | 3.0 | 6.0 | 0.00 | 0.00 | 0.00 | 39 | 1011.7 |
| 20260502234504 | 55 | 1 | 4.0 | 6.0 | 0.00 | 0.00 | 0.00 | 38 | 1011.7 |
| 20260502234004 | 55 | 1 | 4.0 | 6.0 | 0.00 | 0.00 | 0.00 | 38 | 1011.7 |
| 20260502233504 | 55 | 2 | 4.0 | 6.0 | 0.00 | 0.00 | 0.00 | 37 | 1011.6 |
| 20260502233004 | 55 | 1 | 4.0 | 7.0 | 0.00 | 0.00 | 0.00 | 37 | 1011.6 |
| 20260502232503 | 56 | 1 | 4.0 | 7.0 | 0.00 | 0.00 | 0.00 | 37 | 1011.5 |
| 20260502232003 | 56 | 2 | 4.0 | 6.0 | 0.00 | 0.00 | 0.00 | 37 | 1011.6 |
| 20260502231504 | 56 | 1 | 3.0 | 6.0 | 0.00 | 0.00 | 0.00 | 38 | 1011.5 |
| 20260502231003 | 56 | 1 | 3.0 | 6.0 | 0.00 | 0.00 | 0.00 | 38 | 1011.6 |
| 20260502230003 | 56 | 2 | 5.0 | 6.0 | 0.00 | 0.00 | 0.00 | 38 | 1011.8 |
| 20260502225504 | 56 | 1 | 5.0 | 8.0 | 0.00 | 0.00 | 0.00 | 38 | 1011.7 |
| 20260502225003 | 57 | 2 | 5.0 | 8.0 | 0.00 | 0.00 | 0.00 | 37 | 1011.6 |
| 20260502224503 | 57 | 1 | 5.0 | 8.0 | 0.00 | 0.00 | 0.00 | 37 | 1011.7 |
| 20260502224003 | 58 | 1 | 6.0 | 8.0 | 0.00 | 0.00 | 0.00 | 35 | 1011.6 |
| 20260502223504 | 58 | 2 | 6.0 | 7.0 | 0.00 | 0.00 | 0.00 | 34 | 1011.5 |
| 20260502222503 | 58 | 1 | 6.0 | 8.0 | 0.00 | 0.00 | 0.00 | 36 | 1011.4 |
| 20260502222003 | 59 | 1 | 5.0 | 6.0 | 0.00 | 0.00 | 0.00 | 35 | 1011.3 |
| 20260502221003 | 59 | 1 | 5.0 | 11.0 | 0.00 | 0.00 | 0.00 | 35 | 1011.3 |
| 20260502220503 | 59 | 2 | 4.0 | 11.0 | 0.00 | 0.00 | 0.00 | 34 | 1011.2 |
| 20260502220004 | 59 | 2 | 5.0 | 10.0 | 0.00 | 0.00 | 0.00 | 35 | 1011.2 |
| 20260502215504 | 58 | 2 | 6.0 | 11.0 | 0.00 | 0.00 | 0.00 | 35 | 1011.4 |
| 20260502215003 | 58 | 1 | 5.0 | 11.0 | 0.00 | 0.00 | 0.00 | 36 | 1011.4 |
| 20260502214503 | 59 | 1 | 5.0 | 11.0 | 0.00 | 0.00 | 0.00 | 37 | 1011.4 |
| 20260502214004 | 59 | 1 | 4.0 | 6.0 | 0.00 | 0.00 | 0.00 | 36 | 1011.4 |
| 20260502213503 | 59 | 1 | 5.0 | 9.0 | 0.00 | 0.00 | 0.00 | 36 | 1011.4 |
| 20260502212503 | 58 | 1 | 5.0 | 8.0 | 0.00 | 0.00 | 0.00 | 36 | 1011.4 |
| 20260502212004 | 58 | 2 | 4.0 | 8.0 | 0.00 | 0.00 | 0.00 | 37 | 1011.3 |
| 20260502211503 | 58 | 1 | 3.0 | 8.0 | 0.00 | 0.00 | 0.00 | 37 | 1011.2 |
| 20260502211004 | 57 | 1 | 4.0 | 8.0 | 0.00 | 0.00 | 0.00 | 37 | 1011.2 |
| 20260502210504 | 58 | 2 | 2.0 | 4.0 | 0.00 | 0.00 | 0.00 | 36 | 1011.1 |
| 20260502210004 | 58 | 2 | 2.0 | 5.0 | 0.00 | 0.00 | 0.00 | 38 | 1011.0 |
| 20260502205503 | 58 | 1 | 4.0 | 10.0 | 0.00 | 0.00 | 0.00 | 38 | 1011.1 |
| 20260502205004 | 58 | 2 | 5.0 | 10.0 | 0.00 | 0.00 | 0.00 | 37 | 1011.0 |
| 20260502204503 | 58 | 1 | 5.0 | 11.0 | 0.00 | 0.00 | 0.00 | 36 | 1011.0 |
| 20260502204003 | 59 | 1 | 5.0 | 11.0 | 0.00 | 0.00 | 0.00 | 37 | 1011.0 |
| 20260502203503 | 59 | 2 | 6.0 | 7.0 | 0.00 | 0.00 | 0.00 | 36 | 1011.0 |
| 20260502202503 | 60 | 1 | 6.0 | 13.0 | 0.00 | 0.00 | 0.00 | 36 | 1011.1 |
| 20260502202003 | 60 | 2 | 6.0 | 13.0 | 0.00 | 0.00 | 0.00 | 37 | 1011.2 |